Regional Weather Roundup
Issued by NWS San Angelo, TX

Home | Current Version | Previous Version | Text Only | Print | Product List | Glossary On
Versions: 1 2 3 4 5 6 7 8 9 10 11 12 13 14 15 16 17 18 19 20 21 22 23 24 25 26 27 28 29 30 31 32 33 34 35 36 37 38 39 40 41 42 43 44 45 46 47 48 49 50
000
ASUS44 KSJT 280410
RWRSJT
WEST CENTRAL TEXAS REGIONAL WEATHER ROUNDUP
NATIONAL WEATHER SERVICE SAN ANGELO TX
1100 PM CDT FRI MAR 27 2015

NOTE: "FAIR" INDICATES FEW OR NO CLOUDS BELOW 12,000 FEET WITH NO
SIGNIFICANT WEATHER AND/OR OBSTRUCTIONS TO VISIBILITY.

TXZ049-054-064>066-071>073-076>078-098-099-113-114-127-128-139-140-
154-155-168>170-280500
...LOCATIONS ACROSS WEST CENTRAL TEXAS...

CITY           SKY/WX    TMP DP  RH WIND       PRES   REMARKS
SAN ANGELO     CLEAR     60  37  42 S7        30.13R
ABILENE        CLEAR     60  39  45 E9        30.14R
DYESS AFB      CLEAR     57  43  57 SE2       30.13R
JUNCTION       CLEAR     57  38  48 CALM      30.15R
SWEETWATER     CLEAR     57  37  47 E7        30.16R
BROWNWOOD      CLEAR     55  41  58 CALM      30.14R
COLEMAN        CLEAR     58  39  50 NE3       30.14R
SONORA         CLEAR     57  36  44 MISG      30.21R
OZONA          FAIR      57  32  38 S5        30.19R
BRADY          CLEAR     63  34  34 E6        30.14S
$$

TEXAS PANHANDLE/OKLAHOMA PANHANDLE

CITY           SKY/WX    TMP DP  RH WIND       PRES   REMARKS
AMARILLO       CLEAR     52  32  46 SE13      30.13R
BORGER         PTCLDY    60  30  32 S15G22    30.10S
CANADIAN       CLEAR     55  37  49 SW9       30.09S
DALHART        MOCLDY    55  29  36 SE8       30.12R
DUMAS          PTCLDY    50  26  39 SE8       30.11S
GUYMON         NOT AVBL
HEREFORD       CLEAR     54  35  47 S12       30.11S
PAMPA          CLEAR     50  32  49 S10       30.13R
PERRYTON       PTCLDY    47  33  57 S7        30.07F
$$

SOUTHERN PANHANDLE/SOUTH PLAINS/ROLLING PLAINS

CITY           SKY/WX    TMP DP  RH WIND       PRES   REMARKS
LUBBOCK        CLEAR     55  33  43 SE15      30.11F
SNYDER         CLEAR     58  37  43 E10       30.13S
CHILDRESS      CLEAR     51  37  58 SE9       30.12R
SEMINOLE       CLEAR     58  28  31 SW8       30.12S
$$

PERMIAN BASIN

CITY           SKY/WX    TMP DP  RH WIND       PRES   REMARKS
MIDLAND        CLEAR     63  35  35 S10       30.12R
ODESSA         CLEAR     65  32  29 S14       30.13R
WINK           CLEAR     59  34  39 SE12      30.09R
$$

FAR WEST/SOUTHWEST MOUNTAINS/TRANS PECOS

CITY           SKY/WX    TMP DP  RH WIND       PRES   REMARKS
ALPINE         CLEAR     57  24  28 W10       30.27S
DRYDEN           N/A     62  40  44 SE5       30.13R
EL PASO        CLEAR     68  17  14 S8        30.14R
FORT STOCKTON  CLEAR     64  34  32 SW13      30.13R
GUADALUPE PASS CLEAR     62  18  18 W17       30.23R
MARFA          CLEAR     48  28  46 CALM      30.26S
PECOS          CLEAR     56  36  46 SW5       30.10R
$$

DALLAS/FORT WORTH METROPLEX

CITY           SKY/WX    TMP DP  RH WIND       PRES   REMARKS
DFW AIRPORT    MOCLDY    52  39  61 E8        30.16S
FTW MEACHAM    CLEAR     57  41  55 E7        30.16R
DAL-EXECUTIVE  CLEAR     54  41  61 E7        30.17R
GRAND PRAIRIE  NOT AVBL
ADDISON        CLEAR     56  38  52 E5        30.19R
MESQUITE       CLEAR     52  39  60 E3        30.19R
LANCASTER      CLEAR     49  40  71 NE3       30.19R
$$

NORTH CENTRAL TEXAS

CITY           SKY/WX    TMP DP  RH WIND       PRES   REMARKS
SHRMAN/DENISON CLEAR     48  42  79 E6        30.18S
GAINESVILLE    CLEAR     49  40  71 E3        30.19R
BRIDGEPORT     CLEAR     53  44  71 E5        30.18R
DENTON         CLEAR     52  40  63 E5        30.17R
WAXAHACHIE     CLEAR     52  43  72 E5        30.18S
GRANBURY         N/A     58  44  59 E6        30.17S
$$

WESTERN NORTH TEXAS

CITY           SKY/WX    TMP DP  RH WIND       PRES   REMARKS
WICHITA FALLS  CLEAR     50  42  74 E7        30.13F
VERNON         CLEAR     52  38  58 E6        30.14R
BRECKENRIDGE   CLEAR     59  39  48 E6        30.15R
COMANCHE       CLEAR     56  43  61 SE6       30.16R
$$

CENTRAL AND SOUTH CENTRAL TEXAS

CITY           SKY/WX    TMP DP  RH WIND       PRES   REMARKS
AUSTIN/BERGSTM CLEAR     55  44  66 CALM      30.15R
WACO           CLEAR     56  43  61 E5        30.16R
HILLSBORO      CLEAR     56  42  60 E12       30.16R
TEMPLE         CLEAR     57  39  51 E6        30.14R
KILLEEN-GRAY   CLEAR     60  44  55 S6        30.14R
FORT HOOD      CLEAR     60  42  51 E6        30.13S
GEORGETOWN     CLEAR     54  45  71 CALM      30.15R
LAGO VISTA     FAIR      63  43  47 E8        30.16R
SAN MARCOS     CLEAR     57  37  47 CALM      30.16R
NEW BRAUNFELS  CLEAR     62  39  42 CALM      30.14R
RANDOLPH AFB   CLEAR     64  38  38 SW7       30.15R
SAN ANTONIO    CLEAR     66  38  35 SW8       30.15R
STINSON        CLEAR     62  40  44 SW6       30.14R
PLEASANTON     NOT AVBL
LA GRANGE      CLEAR     58  49  71 CALM      30.14R
GIDDINGS       CLEAR     56  46  68 CALM      30.19R
$$

EAST TEXAS

CITY           SKY/WX    TMP DP  RH WIND       PRES   REMARKS
PARIS          NOT AVBL
CLARKSVILLE    NOT AVBL
TYLER          CLEAR     52  37  56 NE5       30.18R
LONGVIEW       CLEAR     51  39  63 NW5       30.18R
PALESTINE      CLEAR     55  39  54 NE6       30.18S
NACOGDOCHES    CLEAR     48  39  71 N6        30.20R
$$

TEXAS HILL COUNTRY AND EDWARDS PLATEAU

CITY           SKY/WX    TMP DP  RH WIND       PRES   REMARKS
LLANO          CLEAR     55  43  62 CALM      30.17S
HORSESHOE BAY  FAIR      59  38  46 CALM      30.15R
KERRVILLE      CLEAR     59  37  43 CALM      30.17S
FREDERICKSBRG  CLEAR     54  38  56 CALM      30.16S
ROCKSPRINGS    NOT AVBL
HONDO          CLEAR     57  40  52 S5        30.18R
UVALDE         CLEAR     60  38  43 SE5       30.17R
DEL RIO        CLEAR     67  38  34 SE9       30.13R
$$

SOUTHEAST TEXAS

CITY           SKY/WX    TMP DP  RH WIND       PRES   REMARKS
COLLEGE STN    CLEAR     62  41  46 E5        30.15R
CALDWELL       CLEAR     55  50  82 CALM      30.19R
CROCKETT       CLEAR     57  45  62 NE6       30.19R
BRENHAM        CLEAR     58  48  70 CALM      30.16R
HUNTSVILLE     CLEAR     58  44  60 CALM      30.16R
CONROE         CLEAR     52  47  83 CALM      30.16R
HOUSTON BUSH   CLEAR     58  48  69 CALM      30.15R
HOUSTON HOBBY  CLEAR     67  41  38 CALM      30.15R
PERLAND        CLEAR     59  48  67 VRB6      30.17R
WHARTON        CLEAR     58  49  72 S6        30.16S
$$

THE UPPER TEXAS COAST

CITY           SKY/WX    TMP DP  RH WIND       PRES   REMARKS
ORANGE         CLEAR     55  49  81 CALM      30.17R
PORT ARTHUR    CLEAR     57  54  89 NW3       30.14R
GALVESTON      CLEAR     67  59  75 SW9       30.17R
ANGLETON       CLEAR     56  54  93 S5        30.16R
BAY CITY       CLEAR     59  57  94 SW3       30.16R
$$

TEXAS COASTAL BEND, RIO GRANDE PLAINS DEEP SOUTH TEXAS

CITY           SKY/WX    TMP DP  RH WIND       PRES   REMARKS
VICTORIA       CLEAR     61  46  57 S6        30.17R
BEEVILLE       FAIR      59  51  73 S6        30.17R
ROCKPORT         N/A     64  52  64 S6        30.17S
PORT ARANSAS   CLEAR     64  54  69 S7        30.18R
PORT LAVACA    CLEAR     63  56  79 S9        30.17S
CORPUS CHRISTI CLEAR     60  56  86 S6        30.18R
KINGSVILLE NAS   N/A     61  55  81 SE8       30.18S
COTULLA        CLEAR     63  42  46 SE6       30.16S
LAREDO         CLEAR     64  44  48 SE6       30.19R
BROWNSVILLE    CLEAR     59  53  80 S3        30.22R
PORT ISABEL    CLEAR     58  48  69 SE6       30.20R
HEBBRONVILLE   NOT AVBL
MCALLEN        CLEAR     61  50  67 SE8       30.22R
WESLACO        CLEAR     61  51  70 SE6       30.21R
FALFURRIAS     CLEAR     60  45  59 SE7       30.18S
EDINBURG       CLEAR     60  53  76 SE5       30.20S
$$


USA.gov is the U.S. government's official web portal to all federal, state and local government web resources and services.